This demonstration page uses our WeatherBlox Daily Observations layout. Learn more.

Left ArrowRight Arrow

39.29038, -76.61219

Hourly Observations for August 16, 2020

Temp ( °F °C ) Dew Point ( °F °C ) Humidity (%) Winds ( mph kmh ) Pressure ( in mb ) Visibility ( mi km ) Precip ( " mm )
12:30 am 00:30 Cloudy with Heavy Rain 71 21.7 69 20.6 94 94 NE 12 19 29.95 1014 2 3 0.11 2.79
12:39 am 00:39 Cloudy with Rain 71 21.7 69 20.6 94 94 NE 13 20 29.95 1014 2 3 0.15 3.81
12:54 am 00:54 Cloudy with Light Rain 71 21.7 68 20 90 90 ENE 15 24 29.95 1014 4 6 0.17 4.32
1:54 am 01:54 Cloudy with Rain 69 20.6 65 18.3 87 87 E 14 22 29.96 1014 3 5 0.15 3.81
2:13 am 02:13 Cloudy with Heavy Rain 67 19.4 63 17.2 87 87 E 12 19 29.96 1014 2 3 0.10 2.54
2:46 am 02:46 Cloudy with Light Rain 68 20 64 17.8 87 87 NE 15 24 29.95 1014 3 4 0.34 8.64
2:54 am 02:54 Cloudy with Light Rain 68 20 64 17.8 87 87 NE 14 22 29.94 1014 4 6 0.34 8.64
3:30 am 03:30 Cloudy with Rain 66 18.9 62 16.7 87 87 NNE 13 20 29.94 1014 2 3 0.10 2.54
3:54 am 03:54 Cloudy with Rain 66 18.9 63 17.2 90 90 NE 12 19 29.92 1013 3 4 0.21 5.33
4:28 am 04:28 Cloudy with Light Rain 67 19.4 64 17.8 91 91 NE 10 17 29.94 1014 4 6 0.12 3.05
4:54 am 04:54 Cloudy with Rain 67 19.4 64 17.8 91 91 NE 12 19 29.92 1013 3 5 0.19 4.83
5:54 am 05:54 Cloudy with Light Rain 68 20 65 18.3 90 90 NNE 7 11 29.92 1013 6 10 0.06 1.52
6:54 am 06:54 Cloudy with Light Rain 68 20 64 17.8 87 87 NE 10 17 29.92 1013 7 11 0.00 0.00
7:54 am 07:54 Cloudy with Light Rain 69 20.6 64 17.8 84 84 NE 8 13 29.92 1013 8 13 0.00 0.00
8:31 am 08:31 Cloudy with Light Rain 69 20.6 65 18.3 87 87 NE 9 15 29.93 1013 7 11 0.01 0.25
8:54 am 08:54 Cloudy with Light Rain 69 20.6 65 18.3 87 87 NNE 9 15 29.92 1013 7 11 0.02 0.51
9:11 am 09:11 Cloudy with Light Rain 68 20 65 18.3 90 90 NNE 9 15 29.93 1013 5 8 0.02 0.51
9:26 am 09:26 Mostly Cloudy with Light Rain 69 20.6 65 18.3 87 87 NNE 9 15 29.93 1013 6 10 0.03 0.76
9:54 am 09:54 Cloudy with Light Rain 69 20.6 66 18.9 90 90 NNE 9 15 29.92 1013 7 11 0.04 1.02
10:54 am 10:54 Cloudy with Light Rain 70 21.1 66 18.9 87 87 NE 6 9 29.94 1014 2 3 0.01 0.25
11:09 am 11:09 Cloudy with Light Rain 70 21.1 66 18.9 87 87 N 6 9 29.94 1014 3 5 0.03 0.76
11:54 am 11:54 Cloudy 71 21.7 67 19.4 87 87 NE 8 13 29.93 1014 7 11 0.03 0.76
12:00 pm 12:00 Cloudy with Light Rain 72 22.2 66 18.9 82 82 NE 8 13 29.93 1014 8 13 0.00 0.00
12:54 pm 12:54 Cloudy with Light Rain 73 22.8 66 18.9 79 79 NE 7 11 29.93 1014 7 11 0.01 0.25
1:54 pm 13:54 Cloudy 74 23.3 66 18.9 76 76 NNE 9 15 29.92 1013 8 13 0.00 0.00
2:54 pm 14:54 Cloudy 74 23.3 65 18.3 74 74 NNE 8 13 29.93 1013 10 16 0.00 0.00
3:54 pm 15:54 Cloudy with Light Rain 74 23.3 66 18.9 76 76 NNE 5 7 29.92 1013 8 13 0.00 0.00
4:06 pm 16:06 Cloudy 74 23.3 65 18.3 74 74 VRB 7 11 29.92 1013 9 14 0.00 0.00
4:25 pm 16:25 Cloudy 73 22.8 64 17.8 74 74 N 8 13 29.92 1013 10 16 0.00 0.00
4:54 pm 16:54 Cloudy 73 22.8 64 17.8 74 74 N 9 15 29.92 1013 10 16 0.00 0.00
5:54 pm 17:54 Mostly Cloudy 74 23.3 64 17.8 71 71 NNE 7 11 29.91 1013 10 16 0.00 0.00
6:54 pm 18:54 Mostly Cloudy 75 23.9 63 17.2 66 66 NE 9 15 29.90 1012 10 16 0.00 0.00
7:54 pm 19:54 Partly Cloudy 73 22.8 63 17.2 71 71 Calm 29.91 1013 10 16 0.00 0.00
8:54 pm 20:54 Mostly Clear 69 20.6 64 17.8 84 84 NNW 3 6 29.92 1013 10 16 0.00 0.00
9:54 pm 21:54 Mostly Clear 66 18.9 63 17.2 90 90 W 3 6 29.93 1014 10 16 0.00 0.00
10:54 pm 22:54 Clear 66 18.9 63 17.2 90 90 Calm 29.94 1014 10 16 0.00 0.00
11:54 pm 23:54 Mostly Clear 66 18.9 63 17.2 90 90 Calm 29.94 1014 10 16 0.00 0.00

Powered by AerisWeather